Weather in Shipitsyno

Russia / Novosibirsk Oblast     56°04′31″N   77°17′52″E
temp.,
°C
wind,
m/s
gust,
m/s
humid.,
%
clouds,
%
prec.,
mm/h
press.,
hPa
HPBL,
m
13 may, thu
thu1301:00+9nnw61273100 0.8 1018610
04:00+7nnw612774 0.0 1018521
07:00+6nnw612740 0.0 1019573
10:00+10nnw71042100 0.0 1019907
13:00+14nnw6831100 0.0 10181410
16:00+17nnw5728100 0.0 10171858
19:00+16nw663779 0.0 10172015
22:00+11nnw5105677 0.0 1019400
14 may, fri
fri1401:00+9nnw412676 0.0 1021388
04:00+7nnw49917 0.0 1022264
07:00+7n598944 0.0 1024456
10:00+10n564997 0.0 1026772
13:00+14nnw562870 0.0 10261140
16:00+17nw5625100 0.0 10251298
19:00+18w472511 0.0 10241242
22:00+14wsw411435 0.0 1023189
15 may, sat
sat1501:00+13wsw513475 0.0 1021239
04:00+13wsw61560100 0.3 1021293
07:00+14wsw616705 0.6 1020405
10:00+19w685445 0.0 1019543
13:00+25wsw683944 0.0 10171049
16:00+28w8113063 0.0 10153057
19:00+27w812315 0.0 10141651
22:00+22wnw0249100 0.1 101329
16 may, sun
sun1601:00+18w336369 2.3 101449
04:00+16w5137398 0.3 1014283
07:00+15wnw4977100 0.3 1014250
10:00+20nnw610575 0.0 1016797
13:00+23nnw6845100 0.0 10161514
16:00+24nnw5839100 0.0 10171785
19:00+24nnw3540100 0.0 10161612
22:00+19ne225498 0.0 101711
17 may, mon
mon1701:00+17sse116693 0.6 101711
04:00+17sw597678 1.0 1015188
07:00+17sw514735 1.3 1015329
10:00+23wsw695258 0.0 1014438
13:00+29w710305 0.0 10131790
16:00+30w8122555 0.0 10113641
19:00+29w711295 0.0 10092377
22:00+23wsw48471 0.0 1008128